Year,Month,Day,Hour,Minute,Value (Times are PST for windgust in km/hr)
2011,11,23,00,00,1.60
2011,11,23,00,04,1.60
2011,11,23,00,06,3.20
2011,11,23,00,07,3.20
2011,11,23,00,08,1.60
2011,11,23,00,09,1.60
2011,11,23,00,10,1.60
2011,11,23,00,11,3.20
2011,11,23,00,12,1.60
2011,11,23,00,13,3.20
2011,11,23,00,14,4.80
2011,11,23,00,15,1.60
2011,11,23,00,16,4.80
2011,11,23,00,17,4.80
2011,11,23,00,18,4.80
2011,11,23,00,19,3.20
2011,11,23,00,20,4.80
2011,11,23,00,21,3.20
2011,11,23,00,25,1.60
2011,11,23,00,26,3.20
2011,11,23,00,31,1.60
2011,11,23,00,32,1.60
2011,11,23,01,11,1.60
2011,11,23,01,12,1.60
2011,11,23,01,13,3.20
2011,11,23,01,14,4.80
2011,11,23,01,15,1.60
2011,11,23,01,17,1.60
2011,11,23,01,19,1.60
2011,11,23,01,20,1.60
2011,11,23,01,21,1.60
2011,11,23,01,23,3.20
2011,11,23,01,24,1.60
2011,11,23,01,25,3.20
2011,11,23,01,26,6.40
2011,11,23,01,27,4.80
2011,11,23,01,28,1.60
2011,11,23,01,29,3.20
2011,11,23,01,30,3.20
2011,11,23,01,31,4.80
2011,11,23,01,32,3.20
2011,11,23,01,33,3.20
2011,11,23,01,34,3.20
2011,11,23,01,35,3.20
2011,11,23,01,36,3.20
2011,11,23,01,37,3.20
2011,11,23,01,38,3.20
2011,11,23,01,39,4.80
2011,11,23,01,40,3.20
2011,11,23,01,41,3.20
2011,11,23,01,50,3.20
2011,11,23,01,53,3.20
2011,11,23,01,54,1.60
2011,11,23,01,55,3.20
2011,11,23,03,29,1.60
2011,11,23,03,30,1.60
2011,11,23,03,34,1.60
2011,11,23,03,35,3.20
2011,11,23,03,36,1.60
2011,11,23,04,17,1.60
2011,11,23,04,20,1.60
2011,11,23,04,21,3.20
2011,11,23,04,23,4.80
2011,11,23,04,24,3.20
2011,11,23,04,25,3.20
2011,11,23,04,36,1.60
2011,11,23,05,18,1.60
2011,11,23,05,19,1.60
2011,11,23,05,44,1.60
2011,11,23,05,57,1.60
2011,11,23,05,59,3.20
2011,11,23,06,00,1.60
2011,11,23,06,01,3.20
2011,11,23,06,02,3.20
2011,11,23,06,03,1.60
2011,11,23,06,04,3.20
2011,11,23,06,05,3.20
2011,11,23,06,06,1.60
2011,11,23,06,07,1.60
2011,11,23,06,08,6.40
2011,11,23,06,09,4.80
2011,11,23,06,10,4.80
2011,11,23,06,11,6.40
2011,11,23,06,12,4.80
2011,11,23,06,13,3.20
2011,11,23,06,14,1.60
2011,11,23,06,15,6.40
2011,11,23,06,16,6.40
2011,11,23,06,17,6.40
2011,11,23,06,18,4.80
2011,11,23,06,19,8.10
2011,11,23,06,20,4.80
2011,11,23,06,21,4.80
2011,11,23,06,22,3.20
2011,11,23,06,23,3.20
2011,11,23,06,24,4.80
2011,11,23,06,25,3.20
2011,11,23,06,26,6.40
2011,11,23,06,27,6.40
2011,11,23,06,28,9.60
2011,11,23,06,29,8.10
2011,11,23,06,30,4.80
2011,11,23,06,31,6.40
2011,11,23,06,32,6.40
2011,11,23,06,33,8.10
2011,11,23,06,34,8.10
2011,11,23,06,35,8.10
2011,11,23,06,36,8.10
2011,11,23,06,37,4.80
2011,11,23,06,38,4.80
2011,11,23,06,39,4.80
2011,11,23,06,40,9.60
2011,11,23,06,41,9.60
2011,11,23,06,42,3.20
2011,11,23,06,43,4.80
2011,11,23,06,44,4.80
2011,11,23,06,45,3.20
2011,11,23,06,46,1.60
2011,11,23,06,47,3.20
2011,11,23,06,48,3.20
2011,11,23,06,49,4.80
2011,11,23,06,50,3.20
2011,11,23,06,51,4.80
2011,11,23,06,52,1.60
2011,11,23,06,53,1.60
2011,11,23,06,54,1.60
2011,11,23,06,55,3.20
2011,11,23,06,56,3.20
2011,11,23,06,58,8.10
2011,11,23,06,59,6.40
2011,11,23,07,00,1.60
2011,11,23,07,01,1.60
2011,11,23,07,02,3.20
2011,11,23,07,03,3.20
2011,11,23,07,04,3.20
2011,11,23,07,05,4.80
2011,11,23,07,06,4.80
2011,11,23,07,07,4.80
2011,11,23,07,08,4.80
2011,11,23,07,09,3.20
2011,11,23,07,10,3.20
2011,11,23,07,11,3.20
2011,11,23,07,12,4.80
2011,11,23,07,13,4.80
2011,11,23,07,14,6.40
2011,11,23,07,15,6.40
2011,11,23,07,16,6.40
2011,11,23,07,17,4.80
2011,11,23,07,18,9.60
2011,11,23,07,19,6.40
2011,11,23,07,20,6.40
2011,11,23,07,21,6.40
2011,11,23,07,22,8.10
2011,11,23,07,23,6.40
2011,11,23,07,24,8.10
2011,11,23,07,25,6.40
2011,11,23,07,26,8.10
2011,11,23,07,27,6.40
2011,11,23,07,28,6.40
2011,11,23,07,29,6.40
2011,11,23,07,30,6.40
2011,11,23,07,31,4.80
2011,11,23,07,32,4.80
2011,11,23,07,33,8.10
2011,11,23,07,34,6.40
2011,11,23,07,35,9.60
2011,11,23,07,36,8.10
2011,11,23,07,37,6.40
2011,11,23,07,38,8.10
2011,11,23,07,39,9.60
2011,11,23,07,40,6.40
2011,11,23,07,41,6.40
2011,11,23,07,42,6.40
2011,11,23,07,43,8.10
2011,11,23,07,44,8.10
2011,11,23,07,45,8.10
2011,11,23,07,46,6.40
2011,11,23,07,47,8.10
2011,11,23,07,48,6.40
2011,11,23,07,49,8.10
2011,11,23,07,50,6.40
2011,11,23,07,51,6.40
2011,11,23,07,52,6.40
2011,11,23,07,53,8.10
2011,11,23,07,54,4.80
2011,11,23,07,55,4.80
2011,11,23,07,56,4.80
2011,11,23,07,57,8.10
2011,11,23,07,58,6.40
2011,11,23,07,59,6.40
2011,11,23,08,00,8.10
2011,11,23,08,01,4.80
2011,11,23,08,02,6.40
2011,11,23,08,03,8.10
2011,11,23,08,04,8.10
2011,11,23,08,05,6.40
2011,11,23,08,06,8.10
2011,11,23,08,07,6.40
2011,11,23,08,08,6.40
2011,11,23,08,09,9.60
2011,11,23,08,10,8.10
2011,11,23,08,11,3.20
2011,11,23,08,12,6.40
2011,11,23,08,13,4.80
2011,11,23,08,14,4.80
2011,11,23,08,15,4.80
2011,11,23,08,16,3.20
2011,11,23,08,17,4.80
2011,11,23,08,18,4.80
2011,11,23,08,19,4.80
2011,11,23,08,20,6.40
2011,11,23,08,21,4.80
2011,11,23,08,22,3.20
2011,11,23,08,23,4.80
2011,11,23,08,24,4.80
2011,11,23,08,25,3.20
2011,11,23,08,26,1.60
2011,11,23,08,27,3.20
2011,11,23,08,28,6.40
2011,11,23,08,29,4.80
2011,11,23,08,30,6.40
2011,11,23,08,31,4.80
2011,11,23,08,32,4.80
2011,11,23,08,33,4.80
2011,11,23,08,34,6.40
2011,11,23,08,35,1.60
2011,11,23,08,36,4.80
2011,11,23,08,37,6.40
2011,11,23,08,38,6.40
2011,11,23,08,39,4.80
2011,11,23,08,43,4.80
2011,11,23,08,44,3.20
2011,11,23,08,45,3.20
2011,11,23,08,46,6.40
2011,11,23,08,47,6.40
2011,11,23,08,48,3.20
2011,11,23,08,49,3.20
2011,11,23,08,50,3.20
2011,11,23,08,51,3.20
2011,11,23,08,52,1.60
2011,11,23,08,53,1.60
2011,11,23,08,54,1.60
2011,11,23,08,55,6.40
2011,11,23,08,56,4.80
2011,11,23,08,57,3.20
2011,11,23,08,58,1.60
2011,11,23,08,59,4.80
2011,11,23,09,00,3.20
2011,11,23,09,41,1.60
2011,11,23,09,43,3.20
2011,11,23,09,44,1.60
2011,11,23,09,46,1.60
2011,11,23,09,54,1.60
2011,11,23,09,55,1.60
2011,11,23,09,56,1.60
2011,11,23,09,57,3.20
2011,11,23,10,07,3.20
2011,11,23,10,08,4.80
2011,11,23,10,09,4.80
2011,11,23,10,10,4.80
2011,11,23,10,11,4.80
2011,11,23,10,12,6.40
2011,11,23,10,13,4.80
2011,11,23,10,14,4.80
2011,11,23,10,15,4.80
2011,11,23,10,16,4.80
2011,11,23,10,17,4.80
2011,11,23,10,18,4.80
2011,11,23,10,19,4.80
2011,11,23,10,20,4.80
2011,11,23,10,21,1.60
2011,11,23,10,22,4.80
2011,11,23,10,23,4.80
2011,11,23,10,24,4.80
2011,11,23,10,25,4.80
2011,11,23,10,26,4.80
2011,11,23,10,27,3.20
2011,11,23,10,28,3.20
2011,11,23,10,29,1.60
2011,11,23,10,30,3.20
2011,11,23,10,31,3.20
2011,11,23,10,32,3.20
2011,11,23,10,33,3.20
2011,11,23,10,34,1.60
2011,11,23,10,35,1.60
2011,11,23,10,36,1.60
2011,11,23,10,37,1.60
2011,11,23,10,42,1.60
2011,11,23,10,45,1.60
2011,11,23,10,49,1.60
2011,11,23,10,50,4.80
2011,11,23,10,51,1.60
2011,11,23,10,56,1.60
2011,11,23,10,57,1.60
2011,11,23,11,00,4.80
2011,11,23,11,01,3.20
2011,11,23,11,02,4.80
2011,11,23,11,03,4.80
2011,11,23,11,04,3.20
2011,11,23,11,05,4.80
2011,11,23,11,06,3.20
2011,11,23,11,08,6.40
2011,11,23,11,09,6.40
2011,11,23,11,10,3.20
2011,11,23,11,11,1.60
2011,11,23,11,16,1.60
2011,11,23,11,17,1.60
2011,11,23,11,18,1.60
2011,11,23,11,19,3.20
2011,11,23,11,20,1.60
2011,11,23,11,21,3.20
2011,11,23,11,22,1.60
2011,11,23,11,23,3.20
2011,11,23,11,24,9.60
2011,11,23,11,25,11.30
2011,11,23,11,26,16.10
2011,11,23,11,27,8.10
2011,11,23,11,28,11.30
2011,11,23,11,29,9.60
2011,11,23,11,30,8.10
2011,11,23,11,31,6.40
2011,11,23,11,32,3.20
2011,11,23,11,33,4.80
2011,11,23,11,34,9.60
2011,11,23,11,35,8.10
2011,11,23,11,36,11.30
2011,11,23,11,37,6.40
2011,11,23,11,38,9.60
2011,11,23,11,39,12.90
2011,11,23,11,40,8.10
2011,11,23,11,41,3.20
2011,11,23,11,42,6.40
2011,11,23,11,43,9.60
2011,11,23,11,44,8.10
2011,11,23,11,45,14.50
2011,11,23,11,46,11.30
2011,11,23,11,47,8.10
2011,11,23,11,48,9.60
2011,11,23,11,49,9.60
2011,11,23,11,50,11.30
2011,11,23,11,51,16.10
2011,11,23,11,52,9.60
2011,11,23,11,53,9.60
2011,11,23,11,54,11.30
2011,11,23,11,55,16.10
2011,11,23,11,56,8.10
2011,11,23,11,57,11.30
2011,11,23,11,58,16.10
2011,11,23,11,59,8.10
2011,11,23,12,00,9.60
2011,11,23,12,01,9.60
2011,11,23,12,02,6.40
2011,11,23,12,03,9.60
2011,11,23,12,04,9.60
2011,11,23,12,05,9.60
2011,11,23,12,06,6.40
2011,11,23,12,07,8.10
2011,11,23,12,08,9.60
2011,11,23,12,09,9.60
2011,11,23,12,10,8.10
2011,11,23,12,11,8.10
2011,11,23,12,12,6.40
2011,11,23,12,13,6.40
2011,11,23,12,14,4.80
2011,11,23,12,15,6.40
2011,11,23,12,16,9.60
2011,11,23,12,17,8.10
2011,11,23,12,18,8.10
2011,11,23,12,19,4.80
2011,11,23,12,20,9.60
2011,11,23,12,21,6.40
2011,11,23,12,22,4.80
2011,11,23,12,23,3.20
2011,11,23,12,24,3.20
2011,11,23,12,25,3.20
2011,11,23,12,29,1.60
2011,11,23,12,30,4.80
2011,11,23,12,31,6.40
2011,11,23,12,32,8.10
2011,11,23,12,33,3.20
2011,11,23,12,34,1.60
2011,11,23,12,35,1.60
2011,11,23,12,37,4.80
2011,11,23,12,39,1.60
2011,11,23,12,40,4.80
2011,11,23,12,41,4.80
2011,11,23,12,42,8.10
2011,11,23,12,43,11.30
2011,11,23,12,44,8.10
2011,11,23,12,45,9.60
2011,11,23,12,46,9.60
2011,11,23,12,47,6.40
2011,11,23,12,48,8.10
2011,11,23,12,49,4.80
2011,11,23,12,50,3.20
2011,11,23,12,51,8.10
2011,11,23,12,52,8.10
2011,11,23,12,53,6.40
2011,11,23,12,54,4.80
2011,11,23,12,55,6.40
2011,11,23,12,56,4.80
2011,11,23,12,57,3.20
2011,11,23,12,58,3.20
2011,11,23,12,59,6.40
2011,11,23,13,00,6.40
2011,11,23,13,01,6.40
2011,11,23,13,02,8.10
2011,11,23,13,03,6.40
2011,11,23,13,05,8.10
2011,11,23,13,06,11.30
2011,11,23,13,07,8.10
2011,11,23,13,08,8.10
2011,11,23,13,09,6.40
2011,11,23,13,10,4.80
2011,11,23,13,11,1.60
2011,11,23,13,12,4.80
2011,11,23,13,13,8.10
2011,11,23,13,14,8.10
2011,11,23,13,15,6.40
2011,11,23,13,16,4.80
2011,11,23,13,17,6.40
2011,11,23,13,18,6.40
2011,11,23,13,19,6.40
2011,11,23,13,20,8.10
2011,11,23,13,21,6.40
2011,11,23,13,22,8.10
2011,11,23,13,23,6.40
2011,11,23,13,24,4.80
2011,11,23,13,25,6.40
2011,11,23,13,26,6.40
2011,11,23,13,27,4.80
2011,11,23,13,28,4.80
2011,11,23,13,29,1.60
2011,11,23,13,30,3.20
2011,11,23,13,31,4.80
2011,11,23,13,32,1.60
2011,11,23,13,33,8.10
2011,11,23,13,34,4.80
2011,11,23,13,35,3.20
2011,11,23,13,36,6.40
2011,11,23,13,37,6.40
2011,11,23,13,38,9.60
2011,11,23,13,39,8.10
2011,11,23,13,40,6.40
2011,11,23,13,41,4.80
2011,11,23,13,42,4.80
2011,11,23,13,43,3.20
2011,11,23,13,44,6.40
2011,11,23,13,45,4.80
2011,11,23,13,46,6.40
2011,11,23,13,47,4.80
2011,11,23,13,48,3.20
2011,11,23,13,49,6.40
2011,11,23,13,50,6.40
2011,11,23,13,51,6.40
2011,11,23,13,52,6.40
2011,11,23,13,53,6.40
2011,11,23,13,54,6.40
2011,11,23,13,55,6.40
2011,11,23,13,56,4.80
2011,11,23,13,57,1.60
2011,11,23,13,58,1.60
2011,11,23,13,59,1.60
2011,11,23,14,00,1.60
2011,11,23,14,01,3.20
2011,11,23,14,02,4.80
2011,11,23,14,03,4.80
2011,11,23,14,04,4.80
2011,11,23,14,05,4.80
2011,11,23,14,06,4.80
2011,11,23,14,07,6.40
2011,11,23,14,08,4.80
2011,11,23,14,09,3.20
2011,11,23,14,10,3.20
2011,11,23,14,12,1.60
2011,11,23,14,15,3.20
2011,11,23,14,16,3.20
2011,11,23,14,17,3.20
2011,11,23,14,18,3.20
2011,11,23,14,20,1.60
2011,11,23,14,29,1.60
2011,11,23,14,37,1.60
2011,11,23,14,39,3.20
2011,11,23,14,40,1.60
2011,11,23,14,41,4.80
2011,11,23,14,42,3.20
2011,11,23,14,44,1.60
2011,11,23,14,45,4.80
2011,11,23,14,46,4.80
2011,11,23,14,47,4.80
2011,11,23,14,48,6.40
2011,11,23,14,49,4.80
2011,11,23,14,50,4.80
2011,11,23,14,51,4.80
2011,11,23,14,52,6.40
2011,11,23,14,53,3.20
2011,11,23,14,54,3.20
2011,11,23,14,56,1.60
2011,11,23,14,57,1.60
2011,11,23,15,06,1.60
2011,11,23,15,13,1.60
2011,11,23,15,14,1.60
2011,11,23,15,16,3.20
2011,11,23,15,17,4.80
2011,11,23,15,18,1.60
2011,11,23,15,19,1.60
2011,11,23,15,20,1.60
2011,11,23,15,33,1.60
2011,11,23,15,35,1.60
2011,11,23,15,36,3.20
2011,11,23,15,37,3.20
2011,11,23,15,38,1.60
2011,11,23,15,39,4.80
2011,11,23,15,40,3.20
2011,11,23,15,41,3.20
2011,11,23,15,42,4.80
2011,11,23,15,43,4.80
2011,11,23,15,44,4.80
2011,11,23,15,45,3.20
2011,11,23,15,46,4.80
2011,11,23,15,47,6.40
2011,11,23,15,48,3.20
2011,11,23,15,49,6.40
2011,11,23,15,50,4.80
2011,11,23,15,51,3.20
2011,11,23,15,53,3.20
2011,11,23,15,54,1.60
2011,11,23,16,16,1.60
2011,11,23,16,17,1.60
2011,11,23,16,18,1.60
2011,11,23,16,20,1.60
2011,11,23,16,21,3.20
2011,11,23,16,22,4.80
2011,11,23,16,23,9.60
2011,11,23,16,24,6.40
2011,11,23,16,25,6.40
2011,11,23,16,26,8.10
2011,11,23,16,27,8.10
2011,11,23,16,28,6.40
2011,11,23,16,29,6.40
2011,11,23,16,30,6.40
2011,11,23,16,31,6.40
2011,11,23,16,32,8.10
2011,11,23,16,33,8.10
2011,11,23,16,34,4.80
2011,11,23,16,35,6.40
2011,11,23,16,36,6.40
2011,11,23,16,37,3.20
2011,11,23,16,38,6.40
2011,11,23,16,39,8.10
2011,11,23,16,40,9.60
2011,11,23,16,41,6.40
2011,11,23,16,42,6.40
2011,11,23,16,43,8.10
2011,11,23,16,44,9.60
2011,11,23,16,45,6.40
2011,11,23,16,46,8.10
2011,11,23,16,47,6.40
2011,11,23,16,48,8.10
2011,11,23,16,49,8.10
2011,11,23,16,50,11.30
2011,11,23,16,51,8.10
2011,11,23,16,52,8.10
2011,11,23,16,53,8.10
2011,11,23,16,54,6.40
2011,11,23,16,55,1.60
2011,11,23,16,56,3.20
2011,11,23,16,57,1.60
2011,11,23,16,58,8.10
2011,11,23,16,59,6.40
2011,11,23,17,00,1.60
2011,11,23,17,01,6.40
2011,11,23,17,02,8.10
2011,11,23,17,03,6.40
2011,11,23,17,04,4.80
2011,11,23,17,05,3.20
2011,11,23,17,06,4.80
2011,11,23,17,07,4.80
2011,11,23,17,08,3.20
2011,11,23,17,09,6.40
2011,11,23,17,10,6.40
2011,11,23,17,11,4.80
2011,11,23,17,12,8.10
2011,11,23,17,13,3.20
2011,11,23,17,14,3.20
2011,11,23,17,15,4.80
2011,11,23,17,22,1.60
2011,11,23,17,23,1.60
2011,11,23,17,26,1.60
2011,11,23,17,29,4.80
2011,11,23,17,30,4.80
2011,11,23,17,31,4.80
2011,11,23,17,32,3.20
2011,11,23,17,33,4.80
2011,11,23,17,34,3.20
2011,11,23,17,35,6.40
2011,11,23,17,36,4.80
2011,11,23,17,37,3.20
2011,11,23,17,38,1.60
2011,11,23,17,39,4.80
2011,11,23,17,40,8.10
2011,11,23,17,41,8.10
2011,11,23,17,42,11.30
2011,11,23,17,43,8.10
2011,11,23,17,44,12.90
2011,11,23,17,45,9.60
2011,11,23,17,46,8.10
2011,11,23,17,47,8.10
2011,11,23,17,48,4.80
2011,11,23,17,49,8.10
2011,11,23,17,50,9.60
2011,11,23,17,51,9.60
2011,11,23,17,52,6.40
2011,11,23,17,53,8.10
2011,11,23,17,54,6.40
2011,11,23,17,55,4.80
2011,11,23,17,56,6.40
2011,11,23,17,57,4.80
2011,11,23,17,58,3.20
2011,11,23,17,59,6.40
2011,11,23,18,00,3.20
2011,11,23,18,01,3.20
2011,11,23,18,02,1.60
2011,11,23,18,05,1.60
2011,11,23,18,20,3.20
2011,11,23,18,21,4.80
2011,11,23,18,22,6.40
2011,11,23,18,23,4.80
2011,11,23,18,24,4.80
2011,11,23,18,30,1.60
2011,11,23,18,31,3.20
2011,11,23,18,32,6.40
2011,11,23,18,33,6.40
2011,11,23,18,34,8.10
2011,11,23,18,35,8.10
2011,11,23,18,36,8.10
2011,11,23,18,37,6.40
2011,11,23,18,38,8.10
2011,11,23,18,39,4.80
2011,11,23,18,40,8.10
2011,11,23,18,41,9.60
2011,11,23,18,42,11.30
2011,11,23,18,43,11.30
2011,11,23,18,44,9.60
2011,11,23,18,45,9.60
2011,11,23,18,46,11.30
2011,11,23,18,47,14.50
2011,11,23,18,48,8.10
2011,11,23,18,49,8.10
2011,11,23,18,50,8.10
2011,11,23,18,51,6.40
2011,11,23,18,52,6.40
2011,11,23,18,53,4.80
2011,11,23,18,54,6.40
2011,11,23,18,55,6.40
2011,11,23,18,56,3.20
2011,11,23,18,57,4.80
2011,11,23,18,59,4.80
2011,11,23,19,00,9.60
2011,11,23,19,01,8.10
2011,11,23,19,02,4.80
2011,11,23,19,03,4.80
2011,11,23,19,04,3.20
2011,11,23,19,05,1.60
2011,11,23,19,06,3.20
2011,11,23,19,07,4.80
2011,11,23,19,08,1.60
2011,11,23,19,09,3.20
2011,11,23,19,18,1.60
2011,11,23,19,22,1.60
2011,11,23,19,23,3.20
2011,11,23,19,24,3.20
2011,11,23,19,26,3.20
2011,11,23,19,27,1.60
2011,11,23,19,28,1.60
2011,11,23,19,29,1.60
2011,11,23,19,30,3.20
2011,11,23,19,31,4.80
2011,11,23,19,32,4.80
2011,11,23,19,33,3.20
2011,11,23,19,34,3.20
2011,11,23,19,38,4.80
2011,11,23,19,39,3.20
2011,11,23,19,56,1.60
2011,11,23,19,57,3.20
2011,11,23,19,58,4.80
2011,11,23,19,59,6.40
2011,11,23,20,00,6.40
2011,11,23,20,01,6.40
2011,11,23,20,02,6.40
2011,11,23,20,03,4.80
2011,11,23,20,04,1.60
2011,11,23,20,05,3.20
2011,11,23,20,07,1.60
2011,11,23,20,11,3.20
2011,11,23,20,12,3.20
2011,11,23,20,13,3.20
2011,11,23,20,14,4.80
2011,11,23,20,18,1.60
2011,11,23,20,23,3.20
2011,11,23,20,24,1.60
2011,11,23,20,25,1.60
2011,11,23,20,35,3.20
2011,11,23,20,36,1.60
2011,11,23,20,38,3.20
2011,11,23,20,39,4.80
2011,11,23,20,40,3.20
2011,11,23,20,41,1.60
2011,11,23,20,42,1.60
2011,11,23,20,44,4.80
2011,11,23,20,45,1.60
2011,11,23,20,46,3.20
2011,11,23,20,47,3.20
2011,11,23,20,48,3.20
2011,11,23,20,49,1.60
2011,11,23,20,50,3.20
2011,11,23,20,52,3.20
2011,11,23,20,53,1.60
2011,11,23,20,54,1.60
2011,11,23,20,55,1.60
2011,11,23,20,56,3.20
2011,11,23,20,57,3.20
2011,11,23,20,58,3.20
2011,11,23,20,59,1.60
2011,11,23,21,00,1.60
2011,11,23,21,01,1.60
2011,11,23,21,02,3.20
2011,11,23,21,03,1.60
2011,11,23,21,04,1.60
2011,11,23,21,05,1.60
2011,11,23,21,06,4.80
2011,11,23,21,07,6.40
2011,11,23,21,08,8.10
2011,11,23,21,09,14.50
2011,11,23,21,10,4.80
2011,11,23,21,12,1.60
2011,11,23,21,16,1.60
2011,11,23,21,17,3.20
2011,11,23,21,18,6.40
2011,11,23,21,19,6.40
2011,11,23,21,20,9.60
2011,11,23,21,21,9.60
2011,11,23,21,22,4.80
2011,11,23,21,23,8.10
2011,11,23,21,24,3.20
2011,11,23,21,25,11.30
2011,11,23,21,26,8.10
2011,11,23,21,27,11.30
2011,11,23,21,28,8.10
2011,11,23,21,29,3.20
2011,11,23,21,30,4.80
2011,11,23,21,31,4.80
2011,11,23,21,32,3.20
2011,11,23,21,33,6.40
2011,11,23,21,34,3.20
2011,11,23,21,36,1.60
2011,11,23,21,37,1.60
2011,11,23,21,38,3.20
2011,11,23,21,59,8.10
2011,11,23,22,00,8.10
2011,11,23,22,01,8.10
2011,11,23,22,02,8.10
2011,11,23,22,03,6.40
2011,11,23,22,04,1.60
2011,11,23,22,07,1.60
2011,11,23,22,35,1.60
2011,11,23,22,36,4.80
2011,11,23,22,37,4.80
2011,11,23,22,38,3.20
2011,11,23,22,39,4.80
2011,11,23,22,40,8.10
2011,11,23,22,41,1.60
2011,11,23,22,42,6.40
2011,11,23,22,43,4.80
2011,11,23,22,44,4.80
2011,11,23,22,45,1.60
2011,11,23,22,46,4.80
2011,11,23,22,47,4.80
2011,11,23,22,48,4.80
2011,11,23,22,49,4.80
2011,11,23,22,50,6.40
2011,11,23,22,51,3.20
2011,11,23,22,52,3.20
2011,11,23,22,53,1.60
2011,11,23,22,54,1.60
2011,11,23,22,55,3.20
2011,11,23,22,56,9.60
2011,11,23,22,57,4.80
2011,11,23,22,58,1.60
2011,11,23,22,59,4.80
2011,11,23,23,00,3.20
2011,11,23,23,01,4.80
2011,11,23,23,02,6.40
2011,11,23,23,03,4.80
2011,11,23,23,04,4.80
2011,11,23,23,05,3.20
2011,11,23,23,07,3.20
2011,11,23,23,08,4.80
2011,11,23,23,09,4.80
2011,11,23,23,10,6.40
2011,11,23,23,11,6.40
2011,11,23,23,12,3.20
2011,11,23,23,14,3.20
2011,11,23,23,15,4.80
2011,11,23,23,16,3.20
2011,11,23,23,17,1.60
2011,11,23,23,19,1.60
2011,11,23,23,20,1.60
2011,11,23,23,22,1.60
2011,11,23,23,32,1.60
2011,11,23,23,34,3.20
2011,11,23,23,35,3.20
2011,11,23,23,36,3.20
2011,11,23,23,37,4.80
2011,11,23,23,38,3.20
2011,11,23,23,39,1.60
2011,11,23,23,40,1.60
2011,11,23,23,41,1.60
2011,11,23,23,42,1.60
2011,11,23,23,43,1.60
2011,11,23,23,44,3.20
2011,11,23,23,52,1.60
2011,11,23,23,53,1.60
2011,11,23,23,56,3.20
2011,11,23,23,57,3.20
2011,11,23,23,58,4.80
2011,11,23,23,59,1.60
